Home   Weather   Istanbul   Past weeks
Flag for Turkey

Past Weather in Istanbul, Turkey — Yesterday and Last 2 Weeks

Now
73 °F

Clear.


Feels Like: 76 °F
Forecast: 82 / 69 °F
Wind: 9 mph from Northeast

Location: Istanbul Ataturk Airport

Current Time: Jul 17, 2019 at 11:55:42 pm

Latest Report: Jul 17, 2019 at 10:50 pm


Visibility: 10 mi

Pressure: 29.77 "Hg

Humidity: 69%

Dew Point: 63 °F

Location of IstanbulLocation

Past Weather in Istanbul — Graph

°F

Istanbul Temperature Yesterday

Maximum temperature yesterday: 82 °F (at 2:20 pm)
Minimum temperature yesterday: 63 °F (at 2:20 am)
Average temperature yesterday: 73 °F

High & Low Weather Summary for the Past Weeks

 TemperatureHumidityPressure
High91 °F (Jul 3, 3:20 pm)94% (Jul 11, 5:50 am)30.01 "Hg (Jul 11, 5:50 am)
Low61 °F (Jul 12, 3:20 am)33% (Jul 7, 4:20 pm)29.62 "Hg (Jul 17, 3:20 pm)
Average76 °F63%29.84 "Hg
* Reported Jul 2 10:20 pm — Jul 17 10:20 pm, Istanbul. Weather by CustomWeather, © 2019

Note: Actual official high and low records may vary slightly from our data, if they occured in-between our weather recording intervals... More about our weather records

Advertising

Istanbul Weather History for the Previous 24 Hours

Scroll right to see more
 ConditionsComfort  
Time TempWeatherWind HumidityBarometerVisibility
10:20 pm
Wed, Jul 17
73 °FPassing clouds.10 mph69%29.80 "HgN/A
9:50 pm75 °FClear.13 mph65%29.77 "Hg10 mi
9:20 pm75 °FPassing clouds.10 mph65%29.77 "HgN/A
8:50 pm75 °FPassing clouds.15 mph61%29.77 "HgN/A
8:20 pm75 °FPassing clouds.16 mph61%29.77 "HgN/A
7:50 pm75 °FScattered clouds.16 mph61%29.77 "HgN/A
7:20 pm77 °FPartly sunny.15 mph57%29.74 "HgN/A
6:50 pm77 °FBroken clouds.17 mph57%29.74 "HgN/A
6:20 pm79 °FScattered clouds.18 mph51%29.74 "HgN/A
5:50 pm79 °FScattered clouds.18 mph54%29.74 "HgN/A
5:20 pm79 °FBroken clouds.17 mph51%29.74 "HgN/A
4:50 pm81 °FScattered clouds.21 mph48%29.74 "HgN/A
4:20 pm81 °FScattered clouds.23 mph48%29.74 "HgN/A
3:50 pm81 °FScattered clouds.16 mph48%29.74 "HgN/A
3:20 pm81 °FSunny.21 mph48%29.62 "Hg10 mi
2:50 pm81 °FPartly sunny.17 mph48%29.74 "HgN/A
2:20 pm81 °FPartly sunny.20 mph48%29.74 "HgN/A
1:50 pm81 °FPartly sunny.18 mph48%29.74 "HgN/A
1:20 pm81 °FPartly sunny.21 mph51%29.74 "HgN/A
12:50 pm79 °FPartly sunny.16 mph51%29.74 "HgN/A
12:20 pm79 °FPartly sunny.16 mph54%29.74 "HgN/A
11:50 am79 °FPartly sunny.16 mph51%29.74 "HgN/A
11:20 am79 °FPartly sunny.15 mph58%29.74 "HgN/A
10:50 am79 °FPartly sunny.17 mph48%29.74 "HgN/A
10:20 am77 °FBroken clouds.16 mph54%29.74 "HgN/A
9:50 am77 °FBroken clouds.17 mph57%29.74 "HgN/A
9:20 am77 °FBroken clouds.16 mph57%29.74 "HgN/A
8:50 am75 °FScattered clouds.15 mph61%29.74 "HgN/A
8:20 am75 °FScattered clouds.16 mph65%29.74 "HgN/A
7:50 am73 °FSunny.14 mph69%29.74 "Hg10 mi
7:20 am73 °FPassing clouds.12 mph69%29.74 "HgN/A
6:50 am72 °FSunny.10 mph69%29.74 "Hg10 mi
6:20 am72 °FSunny.10 mph69%29.71 "Hg10 mi
5:50 am72 °FSunny.8 mph69%29.74 "Hg10 mi
5:20 am72 °FClear.9 mph69%29.74 "Hg10 mi
4:50 am72 °FClear.9 mph73%29.74 "Hg10 mi
4:20 am72 °FPassing clouds.9 mph73%29.74 "HgN/A
3:50 am72 °FClear.7 mph73%29.74 "Hg10 mi
3:20 am72 °FPassing clouds.7 mph73%29.74 "HgN/A
2:50 am72 °FClear.7 mph73%29.74 "Hg10 mi
2:20 am72 °FClear.8 mph73%29.77 "Hg10 mi
1:50 am73 °FPassing clouds.7 mph69%29.77 "HgN/A
1:20 am73 °FClear.10 mph65%29.77 "Hg10 mi
12:50 am73 °FPassing clouds.9 mph65%29.77 "HgN/A
12:20 am73 °FClear.9 mph65%29.77 "Hg10 mi
11:50 pm
Tue, Jul 16
73 °FClear.9 mph65%29.77 "Hg10 mi
11:20 pm73 °FPassing clouds.12 mph65%29.77 "HgN/A
Weather by CustomWeather, © 2019

See weather overview